Location: Dompnac
(44.5644°N, 4.1026°E)
Time: 11:37:54
(UTC+00:00)

Cosmos 1092 Rocket - Pass Details

Date: 19 September 2020
Orbit: 955 x 995 km, 82.9° (Epoch: 29 October)

Event Time Altitude Azimuth Distance (km) Brightness Sun altitude
Rises 20:14:47 0° 349° (N) 3,645 7.6 -26.1°
Reaches altitude 10° 20:17:18 10° 347° (NNW) 2,697 6.8 -26.5°
Maximum altitude 20:23:24 68° 266° (W) 1,033 4.2 -27.4°
Enters shadow 20:25:38 40° 198° (SSW) 1,377 4.6 -27.7°
